Regional Weather Roundup
Issued by NWS

Home | Current Version | Previous Version | Text Only | Print | Product List | Glossary Off
Versions: 1 2 3 4 5 6 7 8 9 10 11 12 13 14 15 16 17 18 19 20 21 22 23 24 25 26 27 28 29 30 31 32 33 34 35 36 37 38 39 40 41 42 43 44 45 46 47 48 49 50

000
ASUS43 KLOT 240410
RWRIL

ILLINOIS REGIONAL WEATHER ROUNDUP
NATIONAL WEATHER SERVICE CHICAGO/ROMEOVILLE IL
1100 PM CDT WED APR 23 2014

NOTE: "FAIR" INDICATES FEW OR NO CLOUDS BELOW 12,000 FEET WITH NO
SIGNIFICANT WEATHER AND/OR OBSTRUCTIONS TO VISIBILITY.

* THESE STATIONS ARE NOT UNDER NWS QUALITY CONTROL. THEY ALSO MAY NOT
  REPORT WEATHER SUCH AS PRECIPITATION OR FOG.

ILZ001-002-007-009-015-016-024-240500-
NORTHWEST ILLINOIS

CITY           SKY/WX    TMP DP  RH WIND       PRES   REMARKS
MOLINE         CLOUDY    48  39  71 E10       29.96F
STERLING*      CLOUDY    45  36  70 E10       30.00R
SAVANNA*       CLOUDY    46  35  66 E10       30.00S
$$

ILZ003-004-008-010-011-017-018-240500-
NORTH CENTRAL ILLINOIS

CITY           SKY/WX    TMP DP  RH WIND       PRES   REMARKS
ROCKFORD       LGT RAIN  41  33  73 E5        30.04S
FREEPORT*      CLOUDY    40  35  83 E8        30.04R
ROCHELLE*      CLOUDY    40  34  77 E13       30.01S
DE KALB*       LGT RAIN  38  31  77 E12       30.01F WCI  30
PERU*          LGT RAIN  45  36  69 CALM      29.98F
$$

ILZ005-006-012>014-019>023-240500-
NORTHEAST ILLINOIS

CITY           SKY/WX    TMP DP  RH WIND       PRES   REMARKS
CHICAGO-OHARE  LGT RAIN  41  22  46 E12       30.05F
CHICAGO-MIDWAY CLOUDY    41  28  60 E9        30.06F
AURORA         LGT RAIN  41  29  62 E8        30.01F
LANSING*       CLOUDY    40  31  69 NE5       30.06F
JOLIET*        LGT RAIN  39  31  73 E10       30.03F WCI  32
WAUKEGAN       CLOUDY    37  23  56 E9        30.05F WCI  30
DUPAGE AIRPORT LGT RAIN  41  26  55 E13       30.01F
KANKAKEE*      LGT RAIN  42  33  70 E15       30.03F
WHEELING       LGT RAIN  39  26  59 VRB6      30.07F WCI  35
MORRIS*        LGT RAIN  42  32  68 E8        30.02F
ROMEOVILLE*    LGT RAIN  40  29  66 E13       30.02F
NORTHERLY ISL    N/A     39  31  73 E13         N/A  WCI  31
$$

LMZ740>746-240500-
SOUTHERN LAKE MICHIGAN

STATION/POSITION SKY/WX   TEMP    WIND        PRES    VSBY  WAVE
                          AIR SEA DIR/SP/G                  HT/PER
                          (F)     (DEG/KT/KT) (MB)    (MI)  (FT/S)
WAUKEGAN HARBOR            37      90/  6/  8 1019.6F
HARRISON CRIB              37      90/ 12/ 14   N/A
BURNHAM HARBOR             39      70/ 10/ 12   N/A
CALUMET HARBOR             39      70/  9/ 12 1019.1S
MICHIGAN CITY              41      60/  7/  9   N/A
$$

ILZ025>027-034>036-040-047-049-050-058-095>099-240500-
WEST-CENTRAL ILLINOIS

CITY           SKY/WX    TMP DP  RH WIND       PRES   REMARKS
QUINCY         PTCLDY    54  33  45 SE15      29.89F
GALESBURG*     CLOUDY    48  40  72 E8        29.95S
MACOMB*        CLOUDY    52  33  47 SE18      29.94F
JACKSONVILLE*  PTCLDY    55  32  42 SE18G24   29.95F
PITTSFIELD*    PTCLDY    55  32  42 E13       29.93F
$$

ILZ028>032-037-038-041>044-048-051>054-059>061-240500-
CENTRAL ILLINOIS

CITY           SKY/WX    TMP DP  RH WIND       PRES   REMARKS
PONTIAC        CLOUDY    45  37  76 E10G17    30.03S
BLOOMINGTON    CLOUDY    46  41  83 E9        30.02F
DECATUR        MOCLDY    55  32  41 SE12      30.00F
PEORIA         CLOUDY    54  36  50 SE12      29.97F
LACON*         DRIZZLE   46  38  75 SE12G22   29.96F
LINCOLN*       CLOUDY    55  32  41 SE6       29.98F
SPRINGFIELD    MOCLDY    56  30  37 SE10      29.98F
TAYLORVILLE    CLOUDY    54  32  43 SE10      29.99F
$$

ILZ033-039-045-046-055>057-062-063-240500-
EAST-CENTRAL ILLINOIS

CITY           SKY/WX    TMP DP  RH WIND       PRES   REMARKS
CHAMPAIGN      LGT RAIN  52  39  61 E13       30.02S
RANTOUL*       CLOUDY    54  38  55 SE8       30.02F
MATTOON        MOCLDY    55  30  38 E8        30.01F
PARIS*         CLOUDY    54  35  48 E8        30.04F
$$

ILZ079-100>102-240500-
SOUTHWEST ILLINOIS

CITY           SKY/WX    TMP DP  RH WIND       PRES   REMARKS
ALTON          PTCLDY    54  35  49 E8        29.97F
BELLEVILLE     CLEAR     54  37  52 E9        29.97F
CAHOKIA*       CLEAR     56  35  45 SE12      29.96S
SPARTA*        CLEAR     54  36  50 E7        29.99S
$$

ILZ064>066-069>071-074>076-080>082-084>086-088>090-092>094-240500-
SOUTH-CENTRAL ILLINOIS

CITY           SKY/WX    TMP DP  RH WIND       PRES   REMARKS
CARBONDALE     CLEAR     53  37  54 E6        29.98F
CAIRO*         CLEAR     58  37  45 E6        29.98F
MARION         CLEAR     55  36  47 SE3       29.99F
MT. VERNON     PTCLDY    54  30  40 NE3       30.01S
CENTRALIA*     PTCLDY    52  35  52 CALM      30.00S
SALEM*         PTCLDY    56  37  47 CALM      30.01S
METROPOLIS*    CLEAR     55  32  42 CALM      29.98F
$$

ILZ067-068-072-073-078-083-087-091-240500-
SOUTHEAST ILLINOIS

CITY           SKY/WX    TMP DP  RH WIND       PRES   REMARKS
FLORA*         MOCLDY    54  35  48 E3        30.01F
FAIRFIELD*     PTCLDY    55  39  54 CALM      30.00F
HARRISBURG*    PTCLDY    54  39  58 E7        30.00F
ROBINSON*      CLOUDY    55  37  50 E8        30.04F
CARMI*         PTCLDY    52  45  76 E5        30.00F
$$

ABBREVIATIONS USED IN REMARKS
   TC - TEMPERATURE IN CELSIUS
  WCI - WIND CHILL INDEX
   HX - HEAT INDEX
  VSB - VISIBILITY
$$




USA.gov is the U.S. government's official web portal to all federal, state and local government web resources and services.